Dewpoint
10 9 9 9 9 9 9 9 9 8 8 8 9 10 10 10 10 10 11 11 11 10 10 9 9 9 9 9 9 8 7 7 6 1 -8 -10 -9 -12 -11 -10 -12 -14 -19 -18 -19 -20 -19 -19 -20 -19 -19 -18 -18 -17 -14 -10 -5 -1 1 1 1 1 1 1 1 1 1 2 1 1 1 1 1 1
10 10 9 9 9 9 9 9 8 8 8 9 9 10 10 10 10 10 10 10 10 10 9 9 9 9 8 8 8 8 7 7 6 3 -5 -11 -10 -12 -12 -11 -12 -15 -18 -18 -18 -19 -18 -18 -19 -19 -19 -18 -18 -17 -15 -10 -4 -0 1 1 1 1 1 1 1 1 1 1 1 1 1 1 1 1
10 10 10 9 9 8 8 8 8 8 9 9 10 10 10 10 10 9 9 10 10 9 9 9 9 9 8 8 8 8 7 6 6 4 -3 -11 -10 -11 -11 -11 -13 -15 -17 -19 -18 -16 -16 -17 -17 -18 -19 -18 -17 -18 -16 -10 -4 -0 1 1 1 1 1 1 1 1 1 1 1 1 1 1 1 1
11 11 10 9 9 8 8 9 8 9 10 10 10 10 10 10 9 9 9 10 10 10 9 9 9 9 8 8 8 7 7 5 5 3 -5 -11 -9 -10 -11 -10 -13 -15 -15 -18 -18 -15 -14 -15 -16 -17 -17 -17 -17 -17 -17 -11 -4 0 1 1 1 1 1 1 1 1 1 1 1 1 1 1 1 0
11 10 10 9 8 7 8 9 9 10 10 10 9 9 9 9 9 9 9 9 10 10 9 9 9 8 8 8 7 7 7 6 5 1 -6 -7 -4 -6 -9 -10 -11 -13 -15 -18 -17 -14 -13 -14 -15 -17 -16 -16 -17 -17 -17 -12 -4 -0 1 1 1 1 1 1 1 1 1 1 1 1 0 0 0 0
11 10 10 9 8 8 9 10 10 10 10 9 9 9 8 8 9 9 9 9 9 9 9 9 9 8 8 8 7 7 6 5 4 1 -3 -0 2 -1 -5 -10 -11 -12 -15 -18 -17 -12 -12 -13 -14 -16 -16 -16 -16 -16 -15 -10 -4 -1 0 1 1 1 1 0 0 1 1 1 1 0 0 0 0 0
11 11 10 10 9 9 10 10 10 10 10 9 9 10 9 9 10 10 9 9 9 9 8 9 8 8 8 8 7 7 6 5 3 0 -1 3 3 2 -2 -8 -11 -13 -16 -18 -17 -12 -10 -11 -13 -15 -15 -15 -16 -15 -11 -7 -3 -1 0 1 1 1 1 0 1 1 1 0 0 0 0 0 -0 -0
11 11 11 11 10 10 11 11 10 10 10 9 10 11 10 9 10 10 9 8 9 9 8 8 8 8 8 8 6 6 5 4 3 -0 1 4 4 1 -3 -8 -10 -12 -17 -17 -16 -13 -10 -9 -10 -12 -14 -14 -14 -13 -9 -5 -2 -0 -0 0 1 0 0 0 1 0 0 0 0 0 -0 -1 -1 -1
10 11 11 11 10 10 10 10 10 10 10 10 10 11 11 10 10 10 9 8 8 9 8 8 8 8 8 8 6 5 4 4 3 0 1 5 5 2 -2 -7 -9 -11 -17 -19 -16 -13 -10 -9 -8 -9 -11 -11 -12 -11 -7 -3 -1 -0 -0 0 0 0 0 0 -0 -0 -0 -0 -1 -1 -1 -1 -1 -1
10 10 11 11 10 10 10 10 10 10 10 10 11 11 11 9 9 9 9 9 9 9 8 8 8 8 8 7 6 6 5 4 4 1 0 4 4 3 1 -3 -6 -6 -9 -15 -17 -15 -11 -9 -8 -7 -8 -8 -9 -9 -6 -3 -1 0 0 0 0 -0 -0 -1 -1 -2 -2 -2 -2 -2 -1 -1 -1 -0
10 10 10 11 11 11 10 10 10 10 10 10 11 11 10 9 9 9 9 9 9 9 8 8 8 8 8 7 6 6 6 4 4 2 -2 0 3 2 0 -2 -3 -2 -1 -4 -9 -14 -13 -11 -10 -9 -7 -7 -6 -7 -6 -4 -2 -1 -1 -1 -1 -2 -2 -3 -3 -3 -3 -2 -1 -1 -1 -1 -0 1
9 10 10 11 11 11 10 9 10 10 11 10 10 10 10 10 10 9 9 9 9 9 8 7 8 8 8 7 6 6 5 4 4 2 -3 -3 0 1 -1 -3 -3 -2 -0 -1 -4 -9 -11 -12 -11 -10 -9 -8 -7 -6 -6 -5 -5 -4 -4 -3 -4 -4 -5 -5 -3 -3 -2 -1 -1 -1 -0 1 2 3
7 8 10 11 11 11 10 10 10 10 10 10 10 9 10 10 10 9 9 9 9 9 8 7 8 7 7 7 5 4 4 4 4 3 -1 -3 -2 -0 -1 -2 -3 -2 -2 -2 -4 -6 -9 -10 -10 -9 -9 -8 -8 -7 -6 -6 -6 -5 -5 -5 -5 -5 -4 -3 -2 -2 -1 -1 0 1 2 3 4 4
7 8 9 10 10 11 11 10 10 10 10 10 10 9 9 10 9 9 9 9 8 9 8 8 8 7 7 7 6 3 2 3 4 3 1 -1 -2 -1 -1 -2 -2 -2 -2 -3 -4 -6 -7 -8 -8 -8 -7 -7 -6 -6 -6 -6 -5 -5 -5 -5 -4 -4 -3 -2 -1 -0 1 2 3 4 4 4 3 1
8 8 9 10 10 10 10 10 10 10 10 10 10 10 10 10 9 8 8 8 8 8 8 8 7 6 6 6 6 4 2 2 3 3 2 0 -1 -1 -1 -2 -1 -2 -2 -1 -2 -4 -5 -6 -6 -5 -4 -4 -5 -5 -4 -4 -3 -3 -3 -3 -3 -2 -0 1 2 3 4 4 4 3 1 -0 -3 -6
8 9 9 10 10 10 11 10 9 10 10 10 10 10 10 10 10 9 8 8 8 7 7 7 6 5 5 5 5 4 3 2 2 2 1 -0 -1 -1 -1 -2 -1 -1 -1 -1 -1 -1 -2 -2 -3 -2 -2 -2 -2 -3 -2 -2 -2 -2 -3 -2 -0 2 3 4 4 4 4 2 -0 -3 -6 -10 -13 -17
9 10 10 10 10 10 10 10 10 10 10 10 10 10 10 10 10 10 10 9 8 8 7 7 5 5 5 5 4 3 3 2 2 1 0 0 -1 -1 -1 -2 -1 -1 -1 -1 -0 -1 -1 -1 -1 -1 -1 -1 -1 -1 -1 -1 -2 -2 -1 1 3 5 5 4 4 2 0 -3 -8 -12 -16 -20 -22 -23
10 10 9 10 9 8 9 9 10 10 10 10 10 10 10 10 10 10 10 10 9 9 8 8 7 7 6 6 4 4 3 2 2 1 1 1 0 -0 -0 -1 -1 -0 -1 -1 -1 -1 -1 -0 -0 -0 0 1 1 1 -0 -1 -1 1 3 5 6 5 4 3 1 -1 -5 -10 -16 -20 -22 -23 -22 -22
10 9 8 9 10 9 8 8 9 10 9 9 10 10 10 10 10 10 10 10 10 9 9 9 9 8 7 6 5 5 4 3 2 1 1 2 1 1 1 0 0 1 -0 -1 -1 -2 -1 1 1 1 2 3 3 3 3 3 4 5 6 6 6 4 3 1 -2 -7 -12 -18 -21 -21 -21 -19 -19 -19
9 8 8 9 9 9 8 7 8 9 7 7 9 10 10 10 9 9 9 9 9 10 9 8 8 9 8 7 6 6 5 3 3 3 2 2 1 2 2 2 2 2 0 -0 -0 -1 0 2 2 3 5 5 5 5 6 6 6 6 5 5 4 2 0 -3 -8 -15 -20 -21 -19 -18 -17 -15 -15 -16
9 8 8 8 8 8 8 8 9 8 7 7 9 10 10 9 9 9 9 9 9 10 9 8 8 8 8 7 7 7 6 4 3 3 4 3 2 3 3 4 4 4 2 1 1 1 3 4 4 5 6 6 6 7 6 6 5 3 1 1 0 -1 -2 -6 -12 -19 -19 -16 -15 -14 -13 -12 -12 -12
9 8 8 8 8 8 9 9 9 9 9 9 9 10 10 9 9 9 9 9 9 9 9 9 9 9 8 8 7 8 7 6 5 4 4 5 4 4 4 5 6 5 4 3 3 4 6 6 6 6 6 6 6 6 5 3 2 1 -0 -1 -1 -2 -3 -6 -10 -12 -12 -11 -10 -9 -9 -10 -10 -9
8 8 8 8 8 9 9 10 9 10 9 9 8 9 10 9 9 9 9 9 9 9 9 9 9 9 9 9 8 8 8 7 7 6 5 5 5 4 5 5 5 6 6 5 5 6 7 7 6 6 6 5 4 3 2 1 0 0 -0 -1 -1 -1 -3 -4 -6 -6 -6 -6 -5 -5 -6 -7 -7 -6
8 8 8 8 9 9 10 10 10 9 10 9 9 9 10 10 9 9 9 9 9 9 9 9 9 9 9 9 9 9 9 8 8 7 6 5 6 6 5 5 5 5 6 6 5 5 6 6 6 6 5 2 0 0 0 0 0 0 -0 -0 -0 -1 -2 -3 -3 -2 -2 -2 -3 -3 -3 -4 -4 -4
7 7 8 8 8 9 9 9 9 9 9 10 9 9 9 9 9 8 9 9 9 9 9 9 9 9 9 9 9 9 9 9 9 9 8 7 6 6 6 6 6 5 5 6 5 4 4 5 5 4 1 -3 -1 0 -0 -0 0 0 0 0 0 -0 -2 -2 -1 -1 -1 -2 -2 -2 -2 -2 -3 -3
5 6 6 7 7 8 8 8 9 9 9 9 9 9 9 8 8 8 9 9 9 9 9 9 9 9 8 9 9 9 9 9 8 8 8 8 7 6 6 6 6 6 6 6 5 4 3 3 3 2 -1 -3 -1 -1 -2 -1 0 1 1 1 0 -1 -2 -3 -1 -1 -2 -2 -2 -1 -1 -2 -2 -2
4 4 5 5 6 6 7 7 8 9 9 9 9 9 8 8 8 7 7 8 7 7 7 6 7 7 7 7 7 7 7 7 6 7 7 7 7 6 6 6 6 6 6 5 4 2 2 1 0 0 -0 -1 -1 -3 -3 -1 1 1 0 0 -0 -2 -3 -4 -2 -2 -2 -2 -1 -1 -1 -1 -2 -2
2 3 3 3 4 4 5 6 7 8 8 8 8 8 8 8 7 6 5 5 5 5 4 4 4 5 5 6 6 6 6 5 5 5 5 5 5 5 6 6 5 5 5 3 2 2 1 1 -1 -1 -2 -4 -5 -5 -3 -2 -0 0 -0 -1 -1 -2 -3 -3 -2 -2 -2 -2 -1 -1 -1 -1 -2 -2
1 1 2 2 2 2 3 4 5 6 7 7 7 7 7 6 5 4 4 5 4 3 3 3 3 3 4 4 4 4 4 4 4 4 4 4 4 4 4 4 4 3 3 2 1 0 0 -1 -4 -6 -6 -6 -5 -3 -1 -1 -1 -1 -1 -2 -2 -3 -4 -3 -2 -2 -2 -2 -1 -1 -1 -2 -3 -4
0 1 1 1 2 2 2 3 4 5 6 6 6 6 6 5 4 4 5 4 4 3 3 2 2 2 3 3 3 3 3 2 1 1 1 1 1 1 1 1 0 -1 -2 -3 -4 -5 -6 -6 -8 -9 -8 -6 -4 -2 -1 -1 -1 -2 -3 -2 -3 -3 -3 -2 -3 -3 -2 -2 -2 -2 -2 -2 -3 -4
-1 -0 0 1 1 1 2 2 3 3 4 4 4 4 4 4 4 4 4 3 3 2 2 2 2 2 2 2 1 -0 -2 -4 -5 -5 -6 -6 -6 -6 -6 -6 -7 -8 -8 -8 -9 -10 -11 -10 -10 -11 -10 -9 -8 -7 -4 -2 -1 -2 -3 -3 -3 -3 -3 -2 -2 -2 -2 -3 -3 -2 -1 -2 -3 -3
-1 -0 -0 -0 0 0 1 1 1 2 2 3 3 3 3 3 3 3 3 2 2 2 1 1 1 0 -0 -2 -3 -5 -6 -5 -3 -3 -5 -7 -9 -9 -11 -12 -11 -10 -9 -10 -10 -11 -11 -12 -11 -10 -9 -8 -8 -7 -4 -3 -3 -3 -3 -3 -3 -3 -2 -2 -2 -2 -3 -4 -3 -2 -1 -2 -3 -3
-1 -0 -0 -0 0 -0 -0 -0 -0 -0 0 1 1 1 1 1 1 1 2 2 1 0 -1 -2 -3 -3 -4 -5 -5 -6 -5 -3 -1 -1 -2 -4 -4 -4 -6 -7 -7 -8 -9 -10 -10 -10 -11 -11 -10 -9 -7 -5 -4 -4 -4 -3 -3 -3 -3 -3 -3 -2 -2 -2 -2 -2 -3 -3 -3 -2 -2 -2 -3 -2
-2 -1 -1 -1 -1 -0 -0 -0 -0 -0 -0 -0 -0 -0 -1 -1 -0 -0 -0 -0 -1 -2 -3 -4 -4 -5 -5 -4 -5 -5 -4 -3 -2 -2 -3 -4 -3 -3 -3 -3 -3 -4 -5 -6 -8 -9 -10 -10 -9 -8 -7 -6 -5 -5 -5 -4 -3 -3 -3 -3 -3 -3 -3 -2 -2 -2 -2 -2 -3 -3 -2 -2 -3 -3
-2 -2 -2 -2 -2 -1 -1 -1 -1 -1 -0 -0 -0 -0 -0 -0 -0 -0 -0 -0 -1 -1 -2 -2 -3 -4 -4 -4 -4 -4 -4 -4 -4 -3 -3 -3 -2 -2 -2 -2 -2 -2 -3 -5 -6 -6 -6 -6 -6 -5 -5 -5 -5 -5 -4 -4 -4 -4 -4 -4 -4 -4 -3 -3 -2 -2 -2 -2 -2 -3 -3 -3 -4 -4
-3 -3 -2 -2 -2 -2 -2 -2 -2 -1 -1 -1 -1 -1 -1 -1 -1 -1 -1 -1 -1 -1 -1 -1 -2 -2 -2 -2 -3 -3 -3 -3 -3 -3 -3 -3 -3 -3 -3 -2 -2 -3 -3 -4 -4 -4 -3 -4 -4 -4 -3 -3 -3 -3 -3 -3 -4 -5 -5 -5 -4 -3 -3 -3 -3 -2 -2 -2 -3 -3 -4 -5 -5 -5
-4 -4 -3 -3 -2 -2 -2 -2 -2 -2 -2 -2 -2 -2 -2 -1 -2 -1 -1 -1 -1 -1 -1 -1 -1 -1 -1 -1 -2 -2 -2 -2 -2 -2 -3 -4 -5 -5 -5 -4 -3 -3 -4 -4 -4 -4 -4 -4 -4 -4 -3 -2 -1 -1 -3 -4 -5 -6 -7 -6 -5 -3 -4 -4 -3 -3 -3 -3 -3 -3 -4 -5 -5 -5
-3 -4 -4 -3 -3 -3 -2 -2 -2 -2 -2 -2 -2 -2 -2 -2 -2 -2 -2 -2 -2 -2 -2 -2 -1 -2 -2 -2 -2 -2 -2 -2 -3 -3 -4 -5 -5 -5 -4 -3 -3 -4 -4 -4 -4 -4 -4 -4 -4 -4 -4 -2 -2 -2 -3 -4 -5 -7 -8 -7 -6 -5 -5 -4 -3 -3 -3 -3 -3 -3 -3 -4 -5 -5
-2 -3 -3 -3 -3 -3 -3 -3 -3 -3 -3 -3 -3 -2 -3 -2 -2 -3 -3 -2 -3 -3 -3 -3 -3 -3 -3 -4 -4 -4 -4 -4 -4 -4 -4 -4 -4 -4 -3 -3 -3 -3 -4 -4 -4 -5 -5 -5 -4 -4 -4 -3 -3 -3 -4 -4 -5 -6 -7 -7 -7 -6 -4 -4 -3 -3 -3 -3 -3 -3 -3 -4 -5 -5
-2 -3 -3 -3 -3 -3 -3 -4 -4 -4 -4 -4 -3 -3 -3 -3 -3 -3 -3 -4 -4 -4 -4 -4 -4 -4 -4 -5 -5 -5 -5 -5 -5 -5 -5 -4 -4 -4 -4 -4 -4 -4 -5 -4 -4 -4 -5 -5 -4 -5 -5 -4 -4 -4 -5 -5 -5 -5 -6 -7 -7 -7 -6 -5 -4 -4 -4 -4 -4 -4 -4 -4 -5 -5
-3 -3 -3 -3 -3 -3 -4 -4 -4 -5 -5 -5 -5 -5 -5 -5 -5 -5 -5 -5 -5 -5 -5 -5 -5 -5 -5 -5 -5 -5 -5 -6 -6 -7 -6 -6 -5 -5 -6 -6 -5 -6 -6 -5 -5 -5 -5 -6 -6 -6 -5 -4 -4 -4 -4 -4 -5 -5 -5 -5 -6 -7 -7 -7 -7 -6 -5 -4 -4 -4 -4 -4 -4 -5
-3 -3 -3 -3 -3 -3 -4 -4 -4 -5 -6 -6 -6 -6 -6 -6 -6 -6 -6 -6 -6 -5 -5 -5 -5 -5 -5 -5 -5 -5 -5 -5 -6 -7 -7 -6 -6 -6 -6 -6 -6 -6 -6 -6 -6 -5 -5 -5 -6 -6 -5 -4 -4 -4 -4 -4 -5 -5 -5 -5 -5 -5 -5 -5 -6 -7 -7 -7 -6 -6 -5 -5 -4 -4
-3 -3 -3 -3 -3 -3 -3 -4 -4 -5 -6 -6 -6 -6 -6 -6 -6 -6 -6 -6 -5 -6 -5 -5 -6 -6 -6 -6 -6 -6 -6 -5 -5 -6 -6 -6 -7 -7 -7 -7 -6 -6 -6 -6 -6 -5 -5 -4 -4 -5 -4 -4 -4 -4 -4 -4 -4 -4 -4 -4 -5 -5 -4 -4 -5 -5 -6 -7 -7 -7 -7 -7 -7 -6
-4 -3 -3 -3 -3 -4 -4 -4 -4 -5 -5 -6 -6 -6 -6 -6 -6 -5 -5 -6 -6 -6 -6 -6 -6 -7 -7 -7 -7 -7 -7 -7 -7 -7 -7 -7 -7 -7 -7 -7 -7 -6 -6 -6 -6 -5 -5 -5 -4 -4 -4 -4 -4 -4 -4 -4 -4 -4 -4 -5 -5 -5 -4 -4 -5 -5 -4 -4 -5 -6 -7 -7 -7 -7
-4 -3 -3 -4 -4 -4 -4 -4 -5 -5 -5 -6 -6 -6 -6 -6 -6 -7 -7 -6 -6 -6 -6 -6 -6 -7 -7 -7 -7 -7 -7 -8 -8 -8 -8 -8 -7 -7 -8 -8 -8 -7 -6 -6 -6 -6 -6 -5 -5 -4 -4 -5 -5 -5 -4 -4 -4 -4 -5 -5 -5 -5 -5 -5 -5 -5 -5 -5 -6 -7 -7 -7 -8 -7
Wind_Speed
25 25 25 24 23 22 22 22 22 22 22 21 22 23 22 22 23 23 24 25 24 25 26 26 26 25 23 21 20 23 23 19 16 17 18 18 17 17 17 17 18 18 17 16 16 16 15 15 16 16 16 16 17 17 17 18 17 16 15 14 14 13 13 12 12 11 9 7 5 3 2 2 3 3
25 25 24 23 23 22 22 22 21 22 22 21 22 25 24 23 23 23 24 25 25 25 26 26 26 25 24 23 23 26 24 20 19 19 19 18 17 17 18 18 18 18 18 17 17 17 16 16 16 17 17 17 17 17 18 17 17 17 16 15 14 13 12 12 11 9 8 5 3 1 1 2 2 3
25 24 22 22 22 21 21 22 22 21 21 21 22 24 24 24 24 24 23 23 23 23 25 26 25 25 24 24 24 26 22 20 21 21 20 19 17 18 18 18 18 18 18 18 18 17 17 16 17 17 17 17 17 18 18 18 18 18 17 16 14 13 12 11 10 9 7 5 3 3 3 4 4 5
24 23 22 22 22 20 20 21 22 21 20 20 21 22 23 24 24 24 24 23 21 22 23 24 23 23 24 24 25 25 21 18 19 20 20 19 18 19 20 19 19 19 18 18 18 18 17 17 17 17 17 18 18 18 18 19 19 18 18 16 15 13 12 11 10 8 7 6 5 5 6 6 7 8
24 23 24 24 23 21 20 21 22 22 21 21 21 22 24 25 24 24 25 25 22 22 23 23 23 24 25 26 26 26 23 20 18 19 21 19 18 20 21 20 21 20 19 19 19 18 18 17 17 18 18 18 18 19 19 19 19 19 18 17 15 14 12 11 10 9 8 7 7 7 8 9 10 11
25 25 25 24 23 21 21 21 22 21 21 22 23 24 25 25 26 25 26 25 23 23 24 25 24 25 27 27 26 26 25 22 20 20 22 20 19 20 20 20 21 21 20 20 20 19 18 18 18 18 18 19 19 19 19 20 20 19 19 18 16 14 12 11 10 9 9 9 9 10 11 11 12 13
25 24 23 21 22 22 21 22 22 21 21 21 23 24 23 24 25 25 25 25 24 24 24 25 27 27 28 28 26 26 25 20 20 23 24 22 22 21 21 21 21 21 21 21 21 20 19 18 18 18 18 19 19 19 19 20 20 19 19 18 17 15 13 12 11 11 11 11 12 13 13 14 15 17
25 24 23 21 22 23 22 22 22 21 21 21 22 22 22 22 21 21 23 24 24 25 24 26 28 28 28 28 24 23 24 20 19 24 24 22 22 22 22 21 21 21 21 22 22 21 20 19 18 18 19 19 19 19 19 20 19 19 18 18 17 15 13 12 12 12 13 14 15 16 16 17 18 20
23 23 23 22 22 22 22 22 22 21 21 21 21 19 18 19 20 21 23 24 24 25 25 26 28 28 29 29 25 21 24 23 21 23 24 20 20 22 22 20 20 21 21 22 23 22 21 20 19 19 19 19 19 19 19 19 18 18 18 17 16 16 14 14 14 15 16 17 17 18 18 19 21 22
22 22 22 23 22 21 22 22 22 22 21 21 19 17 16 16 19 23 24 25 25 26 26 27 29 29 28 29 28 23 23 26 23 23 25 22 18 21 22 20 18 18 20 22 23 23 23 22 21 21 20 20 19 19 19 19 18 18 18 17 17 16 15 15 16 17 18 18 19 19 20 21 22 23
22 20 22 23 22 21 22 22 23 22 21 20 19 18 18 17 19 22 25 27 27 27 27 27 29 31 28 28 29 25 23 27 22 20 27 27 22 22 23 22 20 19 19 20 21 23 23 23 22 21 21 20 19 19 19 19 19 19 18 18 17 16 16 17 19 19 19 19 19 21 22 22 23 23
21 20 21 23 23 22 22 22 23 22 21 20 19 19 19 18 20 22 24 27 28 27 28 28 28 30 28 27 29 25 24 28 24 20 27 29 26 25 24 24 24 22 22 21 21 22 23 23 23 22 21 21 20 20 20 20 20 19 19 18 17 17 18 19 20 19 19 20 21 21 22 22 22 23
20 20 21 22 23 23 23 22 22 22 21 21 21 21 21 20 20 22 24 27 28 28 30 30 28 29 28 28 30 27 27 31 28 23 24 27 26 26 26 26 25 24 23 23 22 22 23 24 23 23 22 22 21 22 21 21 20 19 19 18 17 18 20 20 19 19 19 20 20 20 20 21 22 23
19 21 22 22 23 24 23 21 21 21 21 21 21 21 22 21 21 22 24 27 29 29 32 31 28 29 29 28 30 30 28 29 30 26 24 26 26 25 27 27 25 24 22 21 21 21 22 23 23 23 22 21 22 22 22 21 19 18 18 18 19 20 20 19 18 18 18 18 18 19 20 22 23 25
18 19 20 21 22 23 23 22 21 21 20 21 21 20 21 22 21 21 23 25 28 29 32 33 30 30 30 28 29 31 27 26 29 27 24 26 26 26 28 28 25 25 22 20 20 19 19 19 20 20 19 19 21 21 20 19 18 18 18 19 20 19 17 16 16 16 16 17 18 20 21 23 24 25
18 19 18 18 19 21 22 22 22 21 20 21 21 21 21 21 21 21 21 22 25 28 30 32 31 30 30 28 28 28 26 25 27 25 24 26 28 26 27 28 26 26 24 21 20 18 16 16 16 17 17 17 19 20 19 19 19 19 20 19 18 16 14 14 15 16 17 18 19 20 21 23 23 24
19 20 17 15 16 17 17 19 21 23 23 22 22 21 20 20 20 21 21 20 22 25 28 31 31 29 27 27 27 26 26 26 26 26 25 26 28 27 26 26 26 26 25 24 23 21 18 17 18 20 19 18 18 19 19 20 20 20 19 18 16 14 14 15 16 17 17 18 19 20 21 22 22 22
21 21 17 14 14 13 14 16 19 22 23 23 23 22 21 21 20 20 20 19 20 24 28 30 31 29 27 28 27 26 27 28 29 30 29 25 26 27 25 23 23 23 23 24 26 25 20 18 23 25 21 18 17 17 19 20 20 20 18 17 15 14 15 16 16 16 17 17 18 19 20 21 21 22
19 19 18 17 14 12 12 14 17 20 19 19 20 21 21 21 22 21 21 20 21 25 28 29 30 31 30 30 30 26 26 29 31 31 29 24 22 24 25 23 20 19 22 26 28 27 22 20 25 26 20 18 17 16 18 20 19 19 17 14 14 15 15 16 16 16 16 16 17 18 19 19 21 22
16 16 18 18 16 13 13 15 17 17 16 16 18 19 21 22 22 22 22 22 22 24 27 28 29 31 29 30 31 29 26 28 28 28 28 26 24 23 24 25 21 19 26 29 27 25 22 21 25 24 19 17 17 17 19 19 16 15 13 12 14 14 14 14 14 15 15 15 15 16 17 18 19 21
15 15 17 17 16 15 15 17 16 16 17 18 16 15 19 22 23 23 22 23 23 24 27 28 28 29 28 27 30 31 29 28 28 28 28 29 29 26 23 22 21 22 27 30 28 24 20 19 23 23 19 16 17 18 17 14 11 11 11 11 12 12 12 13 14 13 13 13 13 14 15 16 17 19
16 16 17 16 15 15 15 15 15 16 18 18 14 13 17 21 23 24 23 23 24 25 27 27 28 28 27 26 28 31 32 31 30 31 31 30 31 30 26 22 22 23 25 28 28 23 18 17 20 20 19 17 16 16 14 11 10 9 8 9 11 12 13 14 12 11 11 12 13 14 15 15 16 16
13 16 17 16 15 15 14 14 15 16 17 17 16 16 18 21 23 23 22 21 22 24 27 28 27 27 26 26 27 29 31 32 33 35 34 33 32 33 31 28 27 26 26 26 25 20 18 19 19 18 18 18 15 12 9 7 6 5 7 10 11 11 12 11 9 10 11 12 13 14 15 16 16 15
8 12 15 15 14 15 15 16 17 17 17 16 17 18 20 22 21 20 20 19 20 22 24 25 25 24 25 25 26 29 30 31 34 32 28 30 33 33 33 35 33 28 26 25 24 21 20 21 20 18 16 14 13 11 7 4 3 5 8 9 8 7 9 8 7 8 9 10 12 13 14 16 17 16
8 11 12 12 13 14 15 16 17 17 16 15 15 18 21 21 18 17 17 17 18 20 21 22 23 23 24 24 25 28 29 30 33 31 26 28 32 29 28 33 35 30 26 25 26 26 24 22 21 19 14 10 13 15 9 3 4 5 6 6 6 6 6 5 5 6 7 9 11 11 12 14 16 18
10 11 12 12 13 14 15 15 16 17 18 16 15 17 20 19 16 14 16 17 19 21 21 21 21 20 21 22 21 23 25 24 26 27 25 26 29 26 23 27 29 27 25 27 28 27 24 20 18 17 14 11 14 14 8 4 5 5 5 6 7 6 4 3 3 4 6 7 7 7 10 14 17 19
14 13 13 13 14 15 15 15 15 18 19 18 19 19 20 20 15 11 13 15 16 17 16 15 15 15 15 17 17 18 18 18 18 19 21 22 23 23 21 21 21 21 22 23 24 22 19 16 15 14 12 10 10 10 8 9 10 10 9 8 7 6 3 1 2 4 4 3 4 6 11 15 17 19
19 16 14 13 12 12 11 10 12 16 15 14 19 21 20 18 13 9 11 14 15 16 17 16 15 15 14 16 17 16 16 17 16 16 17 18 19 21 21 19 20 20 19 18 19 18 16 13 11 9 7 6 7 10 12 14 12 10 9 6 2 2 1 4 7 8 6 3 3 7 12 15 17 19
21 19 16 13 11 9 7 5 7 11 11 13 18 20 19 18 18 19 21 21 22 22 23 22 21 21 19 18 17 17 16 16 16 15 15 15 16 17 18 18 18 18 17 15 15 14 12 9 8 8 8 10 13 15 16 15 12 9 7 6 4 4 6 8 10 11 9 6 7 10 13 15 16 16
20 19 17 14 11 7 4 2 4 8 13 17 19 20 21 22 24 27 27 27 27 27 27 27 25 23 21 20 19 18 16 15 14 13 13 14 14 14 14 13 13 12 11 11 11 9 8 7 9 12 15 17 17 17 15 15 13 8 4 7 9 7 6 7 11 12 11 10 9 10 13 15 15 14
17 17 17 15 12 9 5 1 2 6 10 15 17 19 21 22 23 25 28 29 30 28 27 26 25 22 21 21 20 19 18 17 15 13 12 13 13 11 10 10 11 11 10 10 10 10 10 10 10 13 14 14 14 14 14 13 11 6 3 6 10 8 6 8 10 10 10 10 8 7 11 13 14 16
13 11 11 11 11 10 8 6 5 6 7 8 10 13 16 18 17 17 20 22 22 22 22 22 22 21 21 20 20 20 20 20 19 17 15 15 14 12 11 12 14 15 13 12 10 9 8 8 9 10 12 12 12 13 13 12 10 5 5 6 7 7 7 9 10 8 9 8 6 6 9 12 13 15
15 11 9 9 9 9 9 9 9 10 10 9 8 9 11 12 13 13 14 16 16 16 17 18 20 21 22 22 21 21 20 20 20 18 16 16 17 15 13 13 14 12 11 10 9 7 7 7 8 10 11 12 11 9 10 13 12 10 10 10 8 6 5 6 6 5 6 5 3 4 8 10 11 13
17 15 14 14 13 13 11 10 10 10 9 8 7 7 8 9 9 10 11 14 15 15 16 17 18 19 20 20 19 19 19 19 17 14 12 12 12 12 12 13 12 10 9 9 9 8 7 8 8 8 8 8 8 8 10 12 12 9 9 9 9 9 7 6 3 2 4 4 3 3 5 8 11 12
20 19 18 18 17 16 15 14 13 11 9 8 7 5 4 4 4 5 7 9 10 11 12 13 14 14 14 15 15 15 16 16 15 13 12 12 13 14 14 15 13 10 7 7 9 9 8 7 7 7 7 6 6 7 8 8 7 7 6 6 9 10 10 8 5 2 3 4 3 3 4 6 9 10
21 20 19 19 18 17 17 16 15 14 12 11 10 9 8 8 7 6 6 7 8 9 10 11 12 12 12 12 12 12 13 14 14 14 13 12 12 12 12 12 11 9 8 9 10 10 7 6 6 5 4 2 3 5 5 3 3 3 4 7 10 10 9 8 5 1 2 3 3 3 4 5 7 8
20 19 18 19 18 17 17 16 15 15 14 13 12 12 12 13 13 12 11 10 10 10 11 11 11 11 11 11 12 12 12 12 13 13 12 12 10 9 10 11 11 10 10 10 9 8 7 7 7 6 3 3 7 7 5 3 3 3 1 4 8 7 5 7 6 2 1 1 1 2 3 5 8 8
21 19 17 18 18 17 16 16 15 15 14 13 13 13 13 13 14 13 13 13 13 13 13 13 14 14 13 12 12 12 12 11 11 11 11 11 11 12 14 14 12 10 10 8 7 7 7 7 8 7 6 7 9 9 7 5 6 8 7 4 2 3 5 8 8 4 3 3 2 1 2 4 7 8
20 19 18 17 17 16 16 15 16 16 15 14 14 14 14 14 14 14 14 14 15 14 14 14 14 14 14 13 13 13 12 11 11 12 12 13 14 14 14 14 13 12 11 8 8 10 9 8 8 7 6 9 11 9 6 6 8 11 12 11 7 4 5 9 9 7 5 3 1 1 2 2 4 6
18 18 17 16 16 16 15 15 15 16 15 15 14 14 14 14 15 15 15 15 15 15 16 16 16 16 15 14 13 13 12 11 12 12 13 14 15 13 12 12 13 13 11 9 9 9 8 7 6 5 5 8 11 10 8 8 9 10 11 11 11 9 8 9 9 6 4 4 3 1 1 2 2 4
17 15 14 14 15 16 16 16 16 16 15 15 16 16 17 17 17 18 19 18 18 18 18 19 18 17 16 14 13 13 13 12 12 11 11 13 15 14 13 12 10 9 7 4 4 4 4 4 6 7 10 13 13 11 9 8 9 9 8 8 9 10 10 8 6 4 4 4 4 4 3 1 3 4
16 14 12 12 13 15 16 17 16 16 15 16 17 18 18 19 19 20 19 19 19 18 17 17 16 15 13 11 11 11 11 12 13 13 12 12 13 13 12 12 9 6 3 1 2 3 6 9 10 11 13 13 11 9 9 8 7 6 5 5 5 7 8 8 7 5 3 3 4 4 3 2 1 1
13 13 12 11 12 13 14 14 15 15 16 16 16 17 17 18 18 17 16 15 15 14 14 14 13 12 12 11 9 9 10 11 11 11 10 9 9 11 12 12 9 5 3 5 7 7 8 10 11 11 11 11 9 8 9 8 6 5 4 3 4 5 6 7 7 5 4 3 3 2 0 0 0 1
11 13 12 11 11 11 11 11 12 14 15 16 15 15 14 13 12 11 11 12 13 13 13 13 12 11 11 11 10 11 11 11 9 8 9 9 10 11 12 10 9 7 7 7 9 9 9 10 10 9 9 8 8 7 8 7 6 5 3 2 3 5 6 6 8 7 5 4 5 5 4 3 3 3
9 10 11 11 11 11 11 11 11 12 12 13 14 14 13 13 11 9 10 11 11 9 9 9 9 9 9 10 11 11 10 9 8 7 6 7 9 11 10 8 8 10 10 8 6 7 9 10 10 9 8 7 6 6 7 7 6 4 3 3 4 5 4 4 6 8 6 5 7 8 7 6 6 6
Wind_Direction
228 228 229 228 225 222 220 222 224 228 230 231 228 223 217 212 208 209 211 210 210 212 213 212 208 210 206 192 202 225 228 226 231 225 214 209 209 208 204 202 200 197 195 193 189 186 184 183 186 187 186 186 187 184 179 176 173 171 170 171 170 168 165 164 161 162 162 159 150 124 88 57 42 30
229 228 228 228 227 225 225 226 228 229 229 229 225 221 218 213 214 219 216 212 214 213 210 209 209 210 203 192 202 219 226 227 228 227 218 211 211 209 205 203 201 199 199 196 192 189 186 188 190 191 191 190 191 189 185 182 179 177 177 178 178 176 173 172 172 175 178 179 182 192 325 326 331 329
228 225 225 227 227 227 228 228 229 229 228 225 220 217 216 215 216 221 218 210 209 210 208 204 206 208 196 186 200 217 228 230 226 225 219 212 212 210 205 204 202 202 202 199 195 192 190 192 194 196 195 194 194 193 190 188 185 183 184 185 185 184 183 184 186 190 197 210 230 254 274 286 293 301
230 225 224 225 225 227 230 230 230 230 227 224 220 214 214 216 216 216 213 207 206 211 213 206 202 201 188 184 203 220 227 225 219 221 219 210 209 210 206 204 203 203 204 203 199 196 194 196 199 199 199 198 197 197 195 193 191 189 190 191 192 192 194 196 200 207 216 228 242 256 266 278 287 295
235 231 230 231 231 232 233 231 230 230 227 224 221 214 212 217 218 215 211 210 211 211 211 207 201 195 189 190 205 215 216 215 214 216 216 210 208 210 208 206 205 204 205 205 202 200 199 200 202 203 202 202 201 200 199 197 197 196 197 198 199 201 205 209 215 222 232 241 250 262 271 279 287 294
236 233 232 233 235 233 230 228 227 228 226 221 218 213 213 217 219 218 214 212 212 208 207 205 198 196 196 193 199 213 216 214 212 208 209 211 212 211 210 209 208 206 205 205 203 203 203 203 204 205 204 205 204 203 202 201 202 203 204 206 207 210 214 220 228 235 243 253 260 268 275 280 287 293
241 236 231 231 231 227 224 225 227 227 223 219 215 212 213 216 215 215 215 215 213 208 206 203 197 197 198 191 194 215 222 216 210 206 206 211 216 218 215 211 212 210 207 205 204 204 205 205 206 207 206 207 207 206 206 206 207 209 211 213 214 218 222 229 238 245 251 259 265 270 275 281 287 292
249 242 234 230 227 224 224 227 229 226 222 220 217 214 213 213 211 208 209 212 212 209 205 203 199 197 197 190 189 208 218 215 211 208 207 213 220 224 220 213 213 214 210 208 206 205 206 206 206 207 208 208 209 210 210 210 212 214 216 219 220 223 229 237 244 251 257 263 267 272 279 285 290 294
260 251 240 234 228 226 227 230 232 228 222 221 222 219 210 207 210 208 203 204 208 210 208 204 198 195 196 191 182 195 216 216 208 205 209 218 222 219 219 217 213 213 213 211 208 207 207 207 207 208 209 210 212 213 214 215 217 219 220 222 225 230 236 243 250 256 261 265 271 278 284 289 292 296
264 258 249 241 233 231 232 231 232 229 224 221 221 217 209 208 213 212 207 204 205 208 209 206 200 197 198 194 183 188 211 214 208 203 204 212 217 208 210 217 213 209 212 212 212 211 210 210 209 209 209 211 213 215 217 218 219 221 223 225 230 236 242 249 254 259 263 269 276 282 287 290 293 296
266 259 255 249 237 232 235 233 231 230 226 223 222 217 212 210 207 206 206 204 204 207 209 208 204 199 200 201 192 189 203 213 217 209 198 202 211 206 204 210 210 209 213 215 216 216 216 216 216 215 214 214 215 216 218 219 221 223 226 230 234 240 246 252 256 261 268 275 281 285 288 291 294 296
271 264 259 256 245 236 237 236 232 231 227 226 226 221 215 211 205 206 208 205 204 206 206 204 202 199 200 203 197 193 202 209 211 204 196 199 205 204 203 207 209 211 215 218 219 218 219 220 221 221 221 219 219 219 219 220 222 224 227 232 238 245 249 253 259 266 274 279 282 286 289 292 294 296
276 272 265 259 251 244 241 236 233 232 229 226 226 222 217 213 209 210 211 207 205 205 204 201 200 200 202 204 201 200 204 205 202 199 197 200 203 204 204 208 212 214 217 222 223 220 220 222 222 223 224 224 224 223 222 222 223 225 229 234 240 246 251 257 265 272 276 279 283 286 290 293 295 296
281 276 270 262 254 248 242 236 232 231 229 226 225 223 220 217 213 210 208 206 206 207 204 200 198 198 200 202 203 203 204 206 203 196 195 199 201 204 205 206 212 218 219 224 227 225 225 226 226 227 228 230 229 227 225 225 225 227 229 234 241 247 255 263 268 273 275 280 285 288 292 294 295 296
285 277 272 266 259 251 244 240 232 226 228 226 222 221 220 218 214 210 209 207 207 209 204 198 195 197 198 202 205 208 211 209 201 194 196 201 201 203 203 201 205 214 219 223 227 228 229 229 229 230 231 232 232 229 227 224 223 225 227 234 242 249 257 263 267 273 278 283 288 291 294 296 297 298
288 281 274 269 265 257 250 248 237 225 225 228 225 223 221 217 210 208 213 212 208 208 205 199 195 195 198 201 201 204 210 209 201 199 202 204 201 203 205 203 204 209 215 221 225 227 229 229 230 231 231 232 229 225 221 218 218 221 226 232 239 245 255 263 269 277 283 288 292 295 297 298 299 300
287 288 284 275 273 268 261 258 247 232 226 227 228 226 225 223 216 210 214 214 210 207 205 204 200 195 201 207 201 199 205 205 201 200 203 205 204 205 208 211 212 214 216 216 216 220 227 230 230 227 225 227 228 226 223 218 217 220 223 226 233 244 258 268 276 282 288 293 295 296 298 298 299 300
287 292 294 289 283 272 262 259 252 241 234 228 227 227 224 224 220 212 210 210 208 203 202 206 206 202 206 211 204 202 206 206 203 200 199 201 205 207 209 213 216 221 222 216 211 213 220 226 220 213 209 213 217 219 220 217 216 218 220 224 235 252 266 275 284 289 293 295 295 296 299 300 301 302
290 292 294 295 288 267 252 250 247 246 244 236 231 230 227 225 222 217 214 213 212 208 206 209 211 209 208 205 202 202 203 204 208 207 203 202 207 210 212 215 220 221 214 209 207 207 211 214 209 200 196 201 199 198 204 209 211 215 219 230 247 263 274 283 292 296 296 296 298 301 303 304 304 303
288 288 290 295 291 272 259 253 246 245 247 242 235 232 229 227 225 223 221 221 219 215 213 213 212 212 210 204 204 208 206 203 208 211 209 209 213 214 211 213 217 209 197 197 201 203 206 212 207 195 189 197 199 198 199 198 203 216 228 245 259 270 281 291 298 299 298 301 303 305 306 307 307 306
275 275 281 288 286 273 262 255 247 243 242 237 231 228 227 224 223 222 222 223 221 216 214 215 213 214 214 210 211 214 212 208 206 207 209 213 215 214 210 209 209 201 193 193 195 197 200 208 206 195 188 197 206 208 204 200 215 237 246 255 264 276 290 299 302 301 301 305 307 308 309 313 315 314
271 269 276 282 280 271 262 252 242 235 234 231 221 219 223 220 219 220 219 219 219 216 215 216 216 214 213 214 216 217 218 217 213 211 213 216 215 212 208 207 206 203 199 196 195 193 190 194 200 196 190 190 198 209 217 223 235 243 246 259 275 290 300 305 308 309 311 313 315 316 315 319 323 323
271 266 271 273 269 265 261 253 240 233 235 232 218 215 224 223 220 221 222 220 220 220 218 216 216 215 212 214 219 220 221 222 221 219 216 217 221 219 214 212 209 206 203 197 193 190 183 186 197 200 196 192 194 208 226 226 218 234 263 279 291 301 308 315 323 325 326 323 323 325 326 326 325 327
261 255 262 265 261 258 257 253 242 234 239 235 215 206 214 221 222 223 224 221 219 221 220 217 220 222 220 220 221 222 223 222 223 224 218 215 221 221 215 212 210 208 206 202 201 200 193 190 194 197 200 201 191 181 179 184 207 263 282 288 298 306 312 324 336 340 337 330 328 333 333 326 320 320
269 255 259 260 256 253 256 258 249 237 238 242 226 207 206 216 224 220 212 207 208 214 218 220 223 226 225 223 222 223 225 224 226 229 225 219 221 221 216 212 209 207 204 203 206 208 201 197 197 193 189 183 171 163 160 189 250 271 281 284 294 303 311 325 339 341 330 321 325 331 325 316 313 314
315 293 283 277 270 260 258 267 263 246 238 239 231 213 205 215 225 215 203 204 208 212 214 217 218 220 221 221 220 222 226 228 230 232 229 224 225 226 222 216 213 210 204 201 203 203 197 192 194 192 188 179 171 165 158 170 207 224 243 256 272 293 314 333 333 322 308 311 327 326 310 305 307 309
354 334 316 305 295 278 266 267 265 255 248 238 223 209 203 212 222 218 207 204 199 195 192 192 196 202 209 211 211 212 216 218 220 222 220 220 222 219 211 203 202 203 201 197 195 193 189 190 195 202 206 194 174 161 158 172 189 203 221 243 270 303 344 51 218 243 259 290 328 315 298 297 303 308
9 0 348 336 322 302 286 277 261 254 252 234 212 198 191 196 200 184 170 166 158 156 160 163 168 176 186 193 195 195 197 198 200 203 205 207 209 209 203 193 187 188 190 187 185 189 195 199 200 204 200 183 171 165 169 179 184 187 201 217 257 345 172 185 206 219 224 246 301 302 299 300 302 305
13 11 5 357 348 335 320 290 240 224 211 197 192 185 177 175 169 155 150 154 158 160 163 165 166 169 174 178 179 180 182 186 190 191 190 191 192 195 197 192 185 184 188 190 191 197 205 205 204 204 192 185 182 173 171 176 172 167 193 197 154 157 202 213 224 230 232 244 268 285 294 299 301 303
20 18 14 7 2 356 341 293 181 170 172 176 178 177 173 167 163 161 163 168 169 167 166 168 168 167 168 169 168 170 174 176 176 179 183 186 185 186 189 189 182 175 177 183 184 183 182 181 188 190 183 179 177 173 177 183 171 153 188 199 183 188 220 240 245 247 253 263 271 285 297 301 306 318
26 27 27 24 23 22 11 347 115 130 153 164 163 162 164 164 163 166 170 171 169 166 165 168 168 165 164 164 161 160 158 152 144 143 153 160 162 164 169 168 157 145 144 154 161 165 171 173 172 175 178 182 187 191 194 185 163 145 166 187 190 205 239 268 269 270 278 278 273 290 306 310 317 328
11 16 23 28 33 40 45 52 70 88 113 136 139 139 149 157 161 164 168 168 165 160 159 160 159 157 155 153 151 150 147 139 131 127 128 126 121 122 130 133 132 133 136 139 143 154 168 173 174 181 192 201 203 202 193 170 156 178 205 180 178 202 237 266 277 289 299 293 282 292 306 314 324 330
3 1 2 8 19 27 34 45 58 69 81 96 104 106 116 134 148 155 162 164 159 151 149 146 142 142 142 140 142 144 141 134 129 125 121 114 108 110 117 121 122 131 138 138 139 151 168 180 181 181 190 198 197 190 180 167 164 183 197 187 182 200 236 263 275 291 303 303 301 304 310 319 327 332
19 24 25 26 27 25 24 29 37 46 58 71 84 93 95 105 122 133 142 147 146 143 141 136 131 130 131 131 133 135 131 129 131 131 126 121 120 122 123 123 123 129 135 132 128 131 144 159 158 147 150 167 170 163 171 178 178 183 193 201 210 224 240 249 248 282 306 307 309 303 311 322 325 330
29 34 37 39 40 39 39 40 40 41 45 51 60 79 95 98 112 130 138 147 152 154 154 152 147 141 136 131 130 130 127 125 127 129 127 127 129 129 128 128 127 122 113 105 101 100 108 128 133 119 114 124 134 144 167 190 199 198 209 227 231 234 242 241 227 239 293 308 324 319 314 323 328 335
34 36 38 41 42 44 47 49 50 52 58 65 71 79 89 95 102 114 125 139 153 160 161 161 158 155 153 150 147 145 142 137 134 132 130 128 129 132 135 135 128 117 108 108 110 110 113 116 108 93 89 132 163 158 161 185 208 215 237 238 229 229 236 226 201 191 313 307 331 356 4 5 357 352
31 35 38 39 39 40 42 45 49 53 57 64 73 81 89 95 98 102 108 116 126 133 136 139 141 142 145 149 150 149 147 144 142 141 138 133 131 135 135 128 119 114 114 114 118 131 145 149 137 116 111 192 192 169 137 101 61 42 354 227 218 215 199 171 155 121 19 3 47 57 53 35 21 12
22 24 31 34 34 35 37 39 42 48 52 57 64 72 79 84 88 92 98 104 108 110 114 118 118 118 118 120 123 126 127 129 132 134 134 133 132 132 131 125 118 118 117 108 106 121 133 142 147 140 130 141 147 138 117 89 64 54 54 76 154 182 153 142 139 130 101 85 66 50 43 29 27 31
17 16 21 25 27 31 36 40 43 46 51 56 60 66 71 76 81 85 89 93 95 96 98 100 100 101 102 104 106 110 113 119 124 126 126 127 129 130 133 134 134 133 128 122 132 143 142 139 144 147 139 132 129 124 122 112 84 60 52 58 71 90 128 137 138 131 116 109 97 325 317 345 28 38
18 15 16 18 22 29 36 43 46 47 49 54 58 63 67 71 76 79 80 82 84 87 90 91 90 90 91 95 100 106 111 118 127 133 134 133 129 126 128 133 139 140 131 119 127 142 151 160 165 155 127 125 125 123 122 115 96 74 56 54 63 74 97 128 144 149 150 151 141 105 358 319 11 31
18 17 19 19 24 33 39 43 43 43 46 53 59 63 66 69 72 75 75 76 79 83 85 84 83 84 85 88 92 94 95 97 102 111 124 127 123 117 112 109 120 142 146 120 100 105 108 132 159 149 125 115 111 109 110 104 91 81 66 53 57 66 74 86 101 119 146 156 138 116 100 37 18 30
17 18 23 24 28 35 38 38 38 43 52 59 60 61 66 69 70 70 72 74 76 78 79 78 77 78 82 90 99 104 105 102 96 97 108 115 115 120 122 115 116 140 160 82 47 71 92 106 124 135 128 114 101 100 110 108 97 89 78 63 61 62 59 58 59 65 89 128 143 146 158 175 131 63
23 23 28 31 39 44 42 36 36 42 50 54 55 57 61 63 63 61 63 67 71 73 76 78 80 82 84 86 90 101 115 121 118 120 125 123 121 130 132 123 118 129 113 77 79 88 98 107 114 119 117 109 104 112 117 111 106 109 98 77 72 67 57 50 42 38 44 64 74 76 105 222 163 340
38 41 42 42 44 48 49 45 40 40 42 45 50 53 54 57 61 64 66 69 74 77 76 74 74 76 82 84 83 85 92 99 105 116 125 124 125 130 125 115 113 119 109 91 85 86 94 104 106 105 107 110 114 123 124 114 109 113 114 99 81 67 55 42 32 27 31 47 46 39 37 37 29 10
38 48 54 58 56 52 51 51 49 43 38 38 42 43 44 48 56 66 74 75 74 77 83 85 83 80 80 84 85 83 82 87 92 94 100 110 117 117 111 109 122 128 124 117 99 81 89 103 105 100 105 112 113 117 124 126 120 104 97 111 95 68 55 42 30 30 47 74 64 54 53 50 41 35
Height
1502 1503 1504 1505 1506 1507 1508 1508 1509 1509 1511 1512 1513 1514 1516 1518 1519 1520 1522 1524 1525 1527 1529 1531 1534 1536 1538 1540 1540 1541 1543 1544 1545 1546 1546 1547 1548 1549 1551 1552 1554 1555 1556 1557 1558 1559 1560 1561 1562 1563 1564 1566 1567 1568 1569 1570 1571 1572 1573 1574 1575 1576 1576 1577 1577 1578 1579 1579 1580 1580 1581 1581 1581 1581
1501 1501 1502 1503 1504 1504 1506 1506 1507 1507 1508 1509 1511 1512 1514 1516 1517 1518 1519 1521 1523 1524 1526 1529 1531 1533 1536 1537 1538 1540 1541 1542 1543 1544 1545 1546 1547 1548 1550 1551 1553 1554 1555 1557 1558 1558 1559 1560 1561 1562 1563 1565 1566 1567 1568 1569 1570 1571 1572 1574 1575 1575 1576 1576 1577 1577 1578 1579 1579 1579 1580 1580 1581 1581
1500 1500 1500 1501 1501 1503 1504 1504 1505 1505 1506 1507 1508 1509 1511 1513 1515 1516 1518 1519 1520 1522 1524 1527 1529 1532 1534 1535 1537 1538 1540 1541 1541 1542 1543 1545 1546 1547 1548 1550 1551 1553 1554 1556 1557 1557 1558 1559 1560 1561 1563 1564 1565 1566 1567 1569 1569 1571 1572 1573 1574 1575 1575 1576 1576 1577 1577 1578 1578 1579 1579 1579 1580 1580
1499 1498 1498 1499 1500 1501 1502 1502 1503 1503 1504 1505 1506 1507 1508 1510 1512 1514 1516 1517 1518 1520 1522 1526 1528 1530 1532 1535 1536 1536 1537 1539 1540 1540 1542 1543 1545 1545 1546 1548 1549 1551 1553 1554 1555 1556 1557 1558 1559 1560 1561 1563 1564 1565 1566 1567 1569 1570 1571 1572 1573 1573 1574 1575 1575 1576 1576 1577 1577 1578 1578 1578 1579 1579
1496 1496 1496 1497 1498 1499 1500 1500 1501 1501 1502 1502 1503 1504 1505 1507 1508 1511 1513 1515 1517 1519 1521 1524 1526 1528 1530 1533 1534 1534 1535 1537 1538 1539 1540 1541 1543 1543 1545 1546 1548 1549 1551 1552 1554 1555 1556 1557 1558 1559 1560 1561 1563 1564 1565 1566 1567 1568 1570 1571 1571 1572 1573 1573 1574 1575 1575 1576 1576 1576 1577 1577 1577 1577
1494 1494 1493 1494 1495 1497 1497 1498 1499 1499 1499 1500 1501 1502 1503 1504 1506 1507 1510 1512 1514 1516 1518 1521 1524 1526 1527 1530 1532 1532 1532 1535 1537 1537 1538 1539 1541 1542 1543 1544 1546 1547 1549 1550 1552 1553 1554 1555 1556 1558 1559 1560 1561 1563 1564 1565 1566 1567 1568 1569 1570 1571 1572 1572 1573 1574 1574 1574 1575 1575 1575 1575 1575 1575
1492 1492 1492 1492 1492 1493 1494 1495 1496 1497 1497 1498 1499 1500 1502 1503 1504 1505 1507 1509 1511 1514 1516 1519 1522 1523 1525 1527 1530 1530 1531 1533 1535 1535 1536 1537 1539 1540 1541 1543 1544 1546 1547 1549 1550 1552 1553 1554 1555 1556 1557 1559 1560 1561 1562 1563 1565 1566 1567 1568 1569 1570 1570 1571 1572 1572 1573 1573 1573 1573 1573 1573 1573 1573
1491 1492 1492 1491 1491 1492 1492 1493 1494 1495 1496 1497 1497 1499 1501 1503 1503 1503 1505 1507 1509 1512 1515 1518 1520 1522 1523 1526 1528 1529 1529 1531 1533 1534 1534 1536 1537 1538 1539 1541 1542 1544 1545 1547 1548 1550 1551 1553 1554 1555 1556 1557 1558 1559 1561 1562 1563 1565 1566 1567 1568 1569 1569 1570 1570 1571 1571 1571 1571 1571 1571 1572 1571 1571
1489 1491 1491 1490 1489 1490 1489 1490 1492 1493 1494 1495 1496 1497 1499 1501 1501 1501 1502 1505 1507 1510 1512 1515 1517 1520 1521 1523 1525 1527 1527 1529 1532 1533 1533 1534 1536 1536 1537 1538 1540 1542 1544 1545 1547 1548 1550 1551 1552 1553 1554 1555 1557 1558 1559 1561 1562 1563 1564 1565 1566 1567 1568 1568 1568 1569 1569 1569 1569 1569 1570 1570 1569 1569
1488 1490 1490 1488 1487 1488 1487 1488 1490 1491 1492 1493 1494 1495 1497 1499 1499 1499 1501 1503 1505 1507 1509 1511 1514 1517 1518 1521 1523 1524 1525 1526 1528 1530 1532 1533 1534 1534 1535 1536 1538 1540 1542 1543 1545 1546 1547 1549 1550 1551 1552 1554 1555 1556 1558 1559 1560 1562 1563 1564 1565 1565 1566 1566 1566 1566 1567 1567 1567 1567 1567 1567 1567 1566
1486 1488 1489 1487 1486 1486 1486 1486 1488 1489 1490 1490 1492 1493 1494 1495 1497 1498 1499 1501 1502 1505 1506 1507 1511 1513 1516 1518 1520 1522 1524 1524 1525 1527 1529 1531 1532 1533 1534 1535 1536 1538 1540 1541 1543 1545 1546 1547 1548 1549 1551 1552 1553 1554 1556 1557 1558 1560 1561 1562 1563 1563 1564 1564 1564 1564 1565 1565 1565 1565 1565 1564 1564 1564
1483 1485 1487 1486 1484 1484 1484 1485 1486 1486 1487 1488 1489 1490 1491 1492 1494 1495 1497 1498 1500 1502 1503 1504 1508 1511 1513 1516 1518 1520 1522 1522 1522 1524 1526 1528 1529 1531 1532 1534 1534 1536 1538 1539 1541 1543 1544 1545 1546 1547 1549 1550 1551 1552 1553 1555 1556 1557 1559 1560 1561 1561 1561 1561 1562 1562 1563 1563 1563 1562 1562 1562 1561 1561
1480 1482 1484 1484 1483 1483 1484 1484 1484 1484 1485 1485 1486 1487 1487 1489 1491 1492 1494 1496 1498 1499 1501 1502 1505 1507 1510 1512 1514 1516 1518 1518 1519 1521 1524 1526 1528 1529 1531 1532 1533 1535 1536 1537 1539 1540 1541 1542 1543 1544 1546 1547 1548 1550 1551 1552 1554 1555 1556 1558 1558 1559 1559 1559 1560 1560 1560 1560 1560 1560 1559 1559 1559 1558
1478 1479 1482 1483 1483 1483 1484 1483 1481 1481 1482 1483 1483 1484 1485 1486 1488 1490 1491 1494 1495 1497 1498 1500 1502 1504 1506 1509 1511 1513 1515 1517 1517 1519 1521 1524 1526 1528 1529 1530 1531 1533 1535 1536 1537 1538 1539 1540 1541 1542 1543 1545 1546 1547 1548 1550 1552 1553 1554 1555 1556 1556 1557 1557 1558 1558 1558 1558 1557 1557 1557 1556 1556 1555
1477 1478 1480 1481 1482 1483 1483 1482 1480 1479 1480 1481 1481 1482 1483 1484 1486 1488 1489 1491 1493 1494 1496 1498 1500 1501 1503 1506 1509 1510 1513 1515 1516 1516 1519 1521 1524 1525 1526 1527 1529 1530 1532 1534 1535 1536 1537 1538 1539 1540 1541 1542 1543 1544 1546 1548 1550 1551 1552 1553 1553 1554 1555 1555 1555 1555 1555 1555 1555 1554 1554 1554 1553 1552
1476 1477 1478 1479 1480 1480 1480 1480 1479 1478 1478 1479 1479 1480 1481 1482 1484 1486 1487 1489 1491 1492 1494 1496 1497 1499 1501 1504 1506 1507 1510 1512 1513 1514 1517 1519 1521 1523 1523 1524 1526 1527 1530 1531 1532 1534 1535 1536 1537 1537 1538 1540 1541 1542 1545 1546 1547 1548 1549 1550 1551 1552 1552 1552 1553 1553 1552 1552 1552 1552 1551 1551 1550 1549
1474 1475 1475 1476 1476 1477 1477 1478 1479 1479 1479 1478 1478 1478 1479 1480 1482 1483 1484 1487 1489 1491 1493 1494 1495 1497 1499 1501 1503 1505 1507 1509 1511 1513 1515 1516 1518 1520 1521 1522 1524 1525 1527 1528 1530 1531 1532 1534 1534 1534 1536 1537 1538 1540 1542 1544 1545 1546 1547 1548 1549 1550 1550 1550 1550 1550 1550 1550 1549 1549 1548 1548 1547 1546
1473 1473 1474 1474 1474 1475 1475 1477 1479 1480 1479 1477 1476 1477 1477 1478 1479 1480 1481 1483 1485 1488 1491 1493 1494 1496 1498 1499 1501 1503 1505 1507 1508 1510 1512 1514 1516 1518 1520 1521 1523 1523 1524 1526 1527 1529 1531 1531 1531 1531 1533 1535 1536 1538 1540 1541 1543 1544 1545 1546 1547 1547 1548 1547 1547 1547 1547 1547 1546 1546 1545 1544 1543 1543
1471 1472 1472 1472 1473 1474 1475 1476 1477 1478 1478 1476 1475 1475 1476 1476 1477 1478 1480 1481 1483 1486 1489 1490 1492 1493 1495 1497 1498 1501 1503 1504 1506 1508 1510 1513 1515 1516 1518 1519 1520 1521 1522 1523 1525 1527 1529 1528 1527 1529 1532 1533 1534 1536 1538 1539 1541 1542 1543 1544 1544 1544 1545 1545 1545 1545 1544 1544 1543 1543 1542 1541 1540 1540
1469 1469 1469 1470 1471 1472 1474 1474 1474 1475 1475 1474 1473 1474 1474 1475 1475 1477 1478 1480 1481 1484 1486 1487 1489 1490 1492 1494 1497 1499 1500 1502 1505 1507 1509 1511 1512 1513 1515 1516 1517 1518 1519 1521 1523 1526 1527 1526 1525 1527 1529 1531 1532 1534 1536 1537 1539 1539 1540 1541 1541 1542 1542 1542 1542 1542 1541 1541 1541 1540 1540 1539 1538 1537
1468 1468 1467 1468 1469 1470 1471 1471 1471 1472 1472 1471 1471 1472 1472 1472 1473 1475 1476 1477 1479 1482 1483 1484 1486 1488 1490 1493 1495 1497 1498 1500 1502 1504 1506 1508 1509 1510 1511 1512 1514 1515 1517 1519 1521 1523 1523 1523 1524 1525 1527 1529 1531 1532 1533 1535 1536 1537 1538 1539 1539 1540 1540 1540 1540 1539 1539 1539 1538 1538 1538 1537 1536 1535
1465 1466 1465 1465 1466 1467 1468 1468 1468 1469 1470 1469 1470 1471 1470 1470 1471 1472 1474 1475 1477 1479 1480 1482 1483 1485 1487 1490 1492 1494 1495 1497 1499 1501 1502 1504 1506 1507 1508 1508 1511 1513 1515 1517 1519 1519 1520 1521 1522 1524 1526 1528 1529 1530 1532 1533 1534 1535 1536 1537 1537 1538 1538 1538 1537 1537 1537 1537 1536 1536 1536 1536 1535 1534
1463 1464 1463 1463 1464 1465 1465 1465 1465 1467 1468 1468 1468 1469 1469 1469 1469 1471 1472 1474 1475 1476 1477 1479 1480 1481 1484 1487 1488 1490 1492 1493 1495 1496 1497 1499 1502 1503 1504 1504 1507 1509 1511 1514 1515 1516 1517 1519 1520 1522 1523 1525 1527 1529 1531 1532 1533 1534 1535 1535 1535 1535 1535 1535 1535 1535 1535 1535 1535 1534 1534 1534 1533 1533
1461 1461 1461 1461 1462 1463 1463 1462 1462 1463 1464 1464 1465 1466 1467 1467 1468 1469 1470 1472 1473 1474 1475 1476 1478 1479 1481 1483 1485 1487 1488 1490 1491 1492 1494 1497 1498 1498 1499 1499 1502 1505 1508 1510 1512 1513 1514 1516 1518 1520 1521 1522 1525 1527 1529 1530 1531 1532 1533 1533 1533 1533 1533 1534 1534 1534 1534 1534 1533 1533 1532 1532 1531 1532
1460 1459 1459 1460 1461 1461 1460 1460 1460 1461 1461 1462 1463 1464 1464 1465 1467 1468 1469 1469 1471 1472 1473 1475 1476 1478 1479 1481 1482 1484 1485 1487 1488 1489 1492 1495 1494 1495 1497 1497 1498 1501 1505 1507 1509 1510 1512 1514 1517 1519 1521 1521 1523 1526 1528 1529 1530 1530 1531 1531 1531 1532 1532 1533 1533 1534 1534 1533 1532 1532 1531 1530 1530 1530
1459 1458 1458 1458 1458 1458 1458 1458 1458 1459 1459 1460 1461 1462 1463 1464 1465 1466 1467 1467 1468 1470 1472 1473 1474 1475 1477 1479 1480 1482 1483 1484 1485 1487 1489 1491 1492 1493 1496 1496 1497 1500 1501 1503 1505 1507 1509 1513 1516 1517 1519 1521 1522 1524 1526 1528 1529 1529 1530 1530 1530 1531 1532 1532 1532 1533 1532 1532 1531 1531 1530 1529 1529 1528
1459 1458 1457 1456 1456 1456 1456 1456 1456 1457 1458 1459 1460 1460 1462 1463 1463 1464 1465 1466 1468 1469 1471 1472 1473 1474 1476 1478 1479 1480 1481 1482 1483 1485 1486 1488 1489 1491 1494 1495 1497 1498 1500 1501 1504 1506 1508 1511 1514 1515 1517 1519 1521 1522 1525 1526 1528 1528 1529 1529 1530 1531 1532 1532 1531 1531 1531 1531 1530 1529 1529 1528 1528 1527
1461 1459 1458 1457 1456 1456 1455 1455 1455 1456 1457 1458 1458 1458 1459 1460 1461 1463 1465 1466 1468 1469 1470 1471 1472 1473 1475 1476 1477 1478 1480 1481 1482 1483 1485 1486 1488 1490 1493 1494 1495 1497 1498 1500 1503 1505 1506 1509 1512 1514 1516 1517 1519 1521 1523 1525 1526 1527 1527 1528 1529 1530 1530 1530 1530 1530 1530 1530 1529 1528 1528 1528 1527 1526
1464 1462 1461 1459 1458 1457 1456 1456 1456 1455 1455 1457 1458 1458 1458 1458 1459 1461 1464 1465 1466 1467 1468 1469 1471 1471 1473 1475 1477 1478 1480 1481 1482 1483 1484 1486 1487 1489 1491 1492 1494 1496 1498 1499 1501 1503 1505 1507 1510 1512 1515 1516 1518 1519 1521 1523 1525 1526 1526 1527 1528 1528 1527 1528 1529 1530 1530 1530 1528 1527 1527 1526 1526 1526
1468 1466 1464 1462 1461 1459 1459 1459 1459 1456 1455 1456 1457 1457 1458 1458 1458 1459 1461 1463 1464 1465 1466 1467 1469 1470 1472 1474 1476 1478 1480 1481 1483 1484 1485 1486 1487 1489 1490 1492 1493 1496 1497 1499 1501 1502 1504 1506 1509 1511 1513 1514 1516 1518 1519 1521 1523 1524 1524 1525 1527 1526 1525 1526 1527 1528 1529 1529 1528 1526 1526 1525 1525 1525
1472 1470 1468 1465 1464 1463 1462 1462 1462 1460 1457 1457 1458 1457 1457 1459 1459 1460 1460 1461 1463 1464 1466 1467 1468 1470 1472 1473 1475 1477 1479 1481 1482 1484 1485 1486 1487 1489 1490 1491 1493 1496 1499 1501 1502 1503 1505 1507 1509 1511 1512 1513 1515 1517 1518 1520 1522 1523 1523 1524 1525 1525 1524 1524 1525 1526 1527 1528 1527 1526 1525 1524 1524 1524
1474 1473 1471 1470 1468 1467 1465 1464 1464 1462 1461 1460 1461 1460 1459 1460 1461 1462 1462 1463 1464 1466 1467 1468 1469 1470 1472 1474 1475 1477 1479 1481 1483 1484 1486 1487 1488 1489 1490 1492 1494 1497 1499 1501 1503 1504 1506 1508 1509 1510 1511 1512 1514 1516 1517 1519 1520 1521 1521 1522 1522 1523 1523 1523 1524 1525 1525 1526 1526 1525 1524 1524 1524 1523
1476 1475 1473 1472 1471 1470 1468 1467 1466 1465 1464 1463 1464 1464 1462 1462 1462 1463 1464 1465 1466 1469 1470 1471 1471 1471 1472 1474 1475 1477 1479 1481 1484 1486 1486 1488 1489 1491 1492 1494 1495 1498 1499 1501 1503 1504 1506 1507 1509 1510 1511 1512 1513 1515 1516 1517 1518 1519 1520 1520 1521 1521 1522 1522 1523 1523 1524 1524 1525 1525 1524 1523 1523 1523
1478 1476 1475 1474 1473 1472 1471 1470 1469 1468 1467 1467 1467 1467 1467 1466 1466 1466 1466 1467 1468 1470 1472 1473 1474 1474 1474 1475 1476 1478 1480 1482 1485 1487 1488 1489 1491 1493 1494 1495 1497 1498 1499 1501 1503 1504 1506 1507 1509 1510 1511 1512 1513 1514 1516 1516 1517 1518 1519 1520 1520 1520 1521 1521 1522 1522 1523 1523 1524 1524 1523 1523 1523 1523
1481 1479 1477 1476 1475 1474 1473 1472 1471 1470 1470 1469 1469 1469 1469 1469 1469 1469 1469 1470 1471 1472 1473 1475 1476 1476 1476 1477 1478 1480 1482 1484 1486 1488 1490 1491 1493 1495 1496 1497 1498 1499 1501 1502 1504 1505 1506 1507 1508 1509 1510 1511 1512 1514 1515 1516 1517 1518 1518 1519 1519 1519 1519 1520 1521 1521 1522 1522 1523 1523 1524 1523 1523 1523
1484 1482 1481 1480 1479 1478 1477 1475 1475 1474 1472 1472 1471 1471 1470 1470 1470 1471 1471 1472 1473 1473 1475 1476 1477 1477 1478 1479 1481 1482 1483 1485 1487 1489 1491 1493 1495 1496 1498 1498 1499 1501 1502 1503 1504 1505 1506 1507 1507 1508 1509 1510 1512 1513 1514 1515 1516 1517 1517 1517 1517 1517 1518 1519 1520 1520 1521 1522 1522 1523 1523 1524 1523 1523
1487 1485 1484 1483 1482 1481 1480 1479 1478 1477 1476 1475 1474 1473 1473 1472 1472 1472 1473 1473 1474 1475 1476 1477 1478 1479 1480 1481 1482 1483 1485 1486 1488 1490 1492 1494 1495 1497 1498 1499 1500 1502 1503 1504 1505 1506 1507 1508 1508 1509 1509 1509 1511 1513 1514 1515 1516 1516 1516 1516 1516 1516 1517 1518 1519 1520 1521 1521 1522 1522 1523 1523 1523 1522
1490 1488 1487 1485 1484 1483 1482 1481 1480 1479 1479 1478 1477 1477 1476 1475 1475 1475 1475 1476 1476 1477 1478 1479 1479 1480 1481 1482 1483 1484 1486 1487 1489 1491 1492 1494 1496 1497 1498 1499 1501 1502 1504 1505 1506 1506 1507 1508 1508 1509 1509 1509 1511 1513 1514 1514 1515 1516 1516 1516 1516 1516 1516 1517 1518 1520 1520 1521 1522 1522 1522 1523 1523 1522
1492 1491 1490 1488 1487 1486 1485 1484 1483 1482 1482 1481 1480 1480 1479 1479 1478 1478 1478 1479 1479 1480 1480 1481 1482 1483 1483 1484 1485 1487 1488 1489 1490 1492 1494 1495 1496 1498 1499 1500 1501 1503 1504 1505 1506 1506 1507 1507 1508 1509 1509 1510 1511 1513 1514 1514 1515 1516 1516 1516 1516 1516 1516 1517 1518 1519 1520 1521 1521 1522 1522 1523 1523 1522
1495 1493 1492 1491 1490 1489 1488 1487 1486 1485 1485 1484 1483 1483 1482 1482 1482 1482 1482 1482 1482 1483 1484 1484 1485 1486 1487 1487 1488 1489 1490 1491 1493 1494 1495 1496 1497 1498 1500 1501 1502 1504 1505 1505 1505 1506 1507 1507 1508 1509 1510 1511 1512 1513 1514 1515 1515 1516 1516 1517 1517 1517 1517 1517 1518 1518 1519 1520 1521 1521 1522 1522 1522 1522
1497 1496 1494 1493 1492 1491 1490 1489 1488 1488 1487 1487 1486 1486 1485 1485 1485 1485 1485 1485 1486 1486 1487 1488 1488 1489 1490 1491 1491 1492 1493 1494 1495 1496 1497 1498 1499 1500 1501 1502 1504 1505 1505 1505 1506 1506 1507 1507 1508 1510 1511 1512 1512 1514 1514 1515 1516 1516 1517 1518 1518 1518 1518 1518 1518 1519 1519 1520 1521 1521 1522 1522 1522 1522
1499 1498 1497 1496 1495 1494 1493 1492 1491 1491 1490 1490 1490 1489 1489 1488 1488 1488 1488 1489 1489 1489 1490 1490 1491 1492 1492 1493 1494 1494 1495 1496 1497 1498 1499 1500 1500 1501 1502 1504 1505 1506 1506 1507 1507 1507 1508 1508 1509 1510 1511 1512 1513 1514 1514 1515 1516 1517 1517 1518 1518 1519 1519 1519 1519 1519 1520 1520 1521 1521 1521 1522 1522 1522
1501 1500 1499 1498 1497 1496 1496 1495 1494 1494 1493 1493 1492 1492 1492 1492 1492 1492 1492 1492 1492 1492 1492 1493 1494 1494 1495 1495 1496 1496 1497 1498 1499 1499 1500 1501 1502 1503 1504 1505 1506 1506 1507 1507 1507 1508 1509 1509 1510 1511 1512 1512 1513 1514 1515 1515 1516 1517 1517 1518 1519 1519 1519 1519 1519 1520 1520 1521 1521 1521 1521 1521 1522 1522
1502 1501 1500 1500 1499 1499 1498 1498 1497 1496 1496 1495 1494 1494 1494 1494 1494 1494 1494 1494 1494 1494 1495 1496 1496 1496 1497 1497 1498 1499 1499 1500 1501 1501 1502 1502 1503 1504 1505 1506 1506 1507 1507 1507 1508 1508 1509 1510 1511 1511 1512 1513 1513 1514 1515 1516 1517 1517 1518 1518 1519 1519 1519 1519 1520 1520 1520 1521 1521 1521 1521 1521 1521 1521
1503 1502 1502 1501 1501 1501 1501 1500 1500 1499 1499 1498 1497 1497 1497 1496 1496 1496 1496 1496 1497 1497 1497 1497 1498 1498 1499 1500 1500 1501 1501 1502 1503 1503 1504 1504 1505 1505 1506 1506 1507 1508 1508 1508 1508 1509 1510 1510 1511 1512 1513 1513 1514 1515 1515 1516 1517 1517 1518 1518 1519 1519 1519 1520 1520 1521 1521 1521 1521 1521 1521 1521 1521 1521